STARLINK-3964 (52536 NORAD) Tracking and Keplerian Element Data

This shows tracking and keplerian element data for the satellite.

Feedback or suggestion? Click here.




ElementValue
Catalog52536
NameSTARLINK-3964
Epoch Orbit970
Epoch Day192.91667824
Epoch Year2022
RAAN10.1448
Inclination53.2175
Eccentricity0.0001478
Argument of Perigee53.5238
Mean Anonmoly304.9502
Mean Motion15.11428192
Decay Rate-0.00719536
L11 52536U 22051D 22192.91667824 -.00719536 00000+0 -45213-1 0 9998
L22 52536 53.2175 10.1448 0001478 53.5238 304.9502 15.11428192 9703

Live tracking and technical data element details for STARLINK-3964 (NORAD 52536). STARLINK-3964 can be tracked NOW for your location showing map with azimuth and elevation plus other details from your city location.

Track the satellite on the map from your city or location and see movement details for azimuth, elevation, latitude, longitude, range, height, and movement on the map or in text.







IsCatalogInMostPopularTable: catalog: 52536, numindb: 7
Update: records affected: 1



GetName: 52536 STARLINK-3964

Hit Count: updated at: Sun, 14 Aug 2022 01:11:49 GMT